Simultaneous Nadir Overpasses (SNOs) Predictions

Prediction of SNOs between GOES-17 and NOAA-20 Satellite Orbit:

Table of predicted SNOs for the next 14.0 days since TLE Epoch: 3/3/2023
Index Date Time (GOES-17) GOES-17 Lat,Lon NOAA-20 Lat,Lon Distance(km) Time Diff (sec)
1 03/04/2023 08:17:51 -0.00,-104.70 -0.28,-103.53 133.36 80
2 03/05/2023 20:39:48 0.01,-104.70 -0.94,-108.83 470.90 80
3 03/06/2023 20:23:44 0.01,-104.71 0.09,-104.30 45.68 80
4 03/09/2023 08:26:50 -0.01,-104.72 0.04,-105.06 38.25 80
5 03/10/2023 08:05:26 -0.01,-104.72 -0.94,-100.52 478.34 80
6 03/11/2023 20:27:23 0.01,-104.72 -0.26,-105.82 125.83 80
7 03/12/2023 20:11:20 0.01,-104.72 0.78,-101.30 390.66 80
8 03/14/2023 08:33:08 -0.01,-104.72 0.43,-106.56 210.16 80
9 03/15/2023 08:11:44 -0.01,-104.72 -0.61,-102.04 305.77 80
10 03/16/2023 20:33:42 0.02,-104.72 -0.57,-107.35 299.57 80
